STARLINK-35918, 66643

Orbit data source: Space-Track

STARLINK-35918, 66643 is a payload satellite owned by SpaceX/Seattle (US) in LEO that was launched on Sun, 23 Nov 2025 UTC via an FALCON 9 launch vehicle from the Air Force Western Test Range (AFWTR). Payload-class satellites include a variety of spacecraft equipped with specific instruments for various scientific and technological missions. These include communications satellites like Starlink; space stations such as the ISS; scientific satellites like the Hubble; Earth observation satellites from companies like Planet Labs, Umbra, and HawkEye 360; GPS; miniature CubeSats for education and research; and military/defense satellites.

Loading next visibility...
Identifier
66643, 2025-271AC
Orbit
LEO
Country
Flag of USUS
Related business
Manufacturer
SpaceX/Seattle
Mission
Operational Commercial Communications
Bus & Motor
STARLINK V2MO, Unknown motor
Mass
575 kg wet, ~530 kg dry
Launch date (UTC)
2025-11-23 (2 months ago)
Launch vehicle
FALCON 9
Launch site
Air Force Western Test Range (AFWTR)
Object type
Payload
Rocket body
Debris
Shape & HBR
Box + 2 Pan, 17.7 m
Radar Cross Section
36.964 m²

Expand to show TLE details & history
Last TLE update: 6 hours ago

TLE from 6 hours ago
0 STARLINK-35918
1 66643U 25271AC  26037.11382144  .00064298  00000-0  21629-2 0  9995
2 66643  53.1571 286.4991 0001395 105.3020 254.8135 15.30220718 12737
Epoch: 2026-02-06T02:43Z
TLE epoch observation values (Epoch: 2026-02-06T02:43:54.172Z)
Latitude
-0.00002°
Longitude
109.26702°
Altitude
476.303 km
Speed
7.629 km/s
True Right ascension
19h 05m 59s
True Declination
0° 00' 00"
Sunlit
Object was in daylight at epoch
Visualization orbit readout
Latitude
Unknown
Longitude
Unknown
Altitude
Unknown
Speed
Unknown
Apparent Right ascension
Unknown
Apparent Declination
Unknown
Sunlit
N/A
Visualization observer readout
Local Sidereal Time
10:34:38
Azimuth
Unknown
Elevation
Unknown
Doppler factor
Unknown
Orbital elements
Apogee altitude
476.366 km
Perigee altitude
474.454 km
Semi-major axis
6,853.547 km
Eccentricity
0.00014
Inclination
53.1571°
RAAN
286.4991°
Arg. of periapsis
105.302°
True anomaly
254.79807°
Mean anomaly
254.8135°
Eccentric anomaly
254.80579°
Mean motion
3.82534 °/min
Orbital period
94.11 mins
BSTAR
0.0021629
Loading maneuver chart data...
Computing Atmospheric mass density...
Loading historical data...
Loading historical data...
Loading historical data...
Loading historical data...
Loading historical data...
Loading historical data...
Loading historical data...

Documentation

Showing up to 5 results
|